Weather Service Report


981 
ASUS43 KLMK 291310
RWRKY 
KENTUCKY REGIONAL WEATHER ROUNDUP
NATIONAL WEATHER SERVICE LOUISVILLE KY
900 AM EDT SUN MAR 29 2015

NOTE "FAIR" INDICATES FEW OR NO CLOUDS BELOW 12,000 FEET
WITH NO SIGNIFICANT WEATHER AND/OR OBSTRUCTIONS TO VISIBILITY.

KYZ001>023-026-027-061>063-070>075-291400-
WESTERN AND SOUTH CENTRAL KENTUCKY
  
CITY           SKY/WX    TMP DP  RH WIND       PRES   REMARKS
PADUCAH        SUNNY     35  19  52 S12       30.28R WCI  27          
HENDERSON      MOSUNNY   32  18  55 SE12      30.30F WCI  23          
OWENSBORO      SUNNY     33  22  64 S9        30.33R WCI  25          
HOPKINSVILLE   SUNNY     32  18  56 SE7       30.32R WCI  26          
BOWLING GREEN  SUNNY     31  20  63 S6        30.35R WCI  25          
GLASGOW        SUNNY     33  19  55 SE6       30.34S WCI  28          
$$

KYZ024-025-028>034-038-045-046-053-291400-
NORTH CENTRAL KENTUCKY
  
CITY           SKY/WX    TMP DP  RH WIND       PRES   REMARKS
LOUISVILLE/SDF MOSUNNY   30  17  58 SE9       30.34S WCI  22          
LOUISVILLE/LOU SUNNY     31  16  54 SE6       30.35R WCI  25          
FORT KNOX      SUNNY     29  18  63 SE6       30.31R WCI  23          
$$

KYZ035>037-039>044-047>052-055>060-089>105-291400-
NORTHEAST KENTUCKY
  
CITY           SKY/WX    TMP DP  RH WIND       PRES   REMARKS
LEXINGTON      SUNNY     28  14  55 SE10      30.35S WCI  19          
COVINGTON      MOSUNNY   28  16  60 S14       30.34R WCI  17          
FRANKFORT      SUNNY     27  16  63 S9        30.35S WCI  18          
$$

KYZ054-064>069-076>088-106>120-291400-
SOUTHEAST KENTUCKY
  
CITY           SKY/WX    TMP DP  RH WIND       PRES   REMARKS
JACKSON        SUNNY     27  11  51 S3        30.36R                  
LONDON         SUNNY     27  16  63 SE3       30.36R                  
SOMERSET       SUNNY     27  19  74 CALM      30.40R                  
MIDDLESBORO    SUNNY     25  20  84 CALM      30.40S                  
MONTICELLO     SUNNY     32  17  54 SE6       30.39R WCI  26          
$$


Return to Home page


Western Regional Climate Center, wrcc@dri.edu